Regional Weather Roundup
Issued by NWS

Home | Current Version | Previous Version | Graphics & Text | Print | Product List | Glossary On
Versions: 1 2 3 4 5 6 7 8 9 10 11 12 13 14 15 16 17 18 19 20 21 22 23 24 25 26 27 28 29 30 31 32 33 34 35 36 37 38 39 40 41 42 43 44 45 46 47 48 49 50
000
ASUS43 KFSD 311102
RWRSD

WEATHER ROUNDUP FOR SOUTH DAKOTA
NATIONAL WEATHER SERVICE SIOUX FALLS SD
600 AM CDT FRI JUL 31 2015

NOTE: "FAIR" INDICATES FEW OR NO CLOUDS BELOW 12,000 FEET WITH NO
SIGNIFICANT WEATHER AND/OR OBSTRUCTIONS TO VISIBILITY.


SDZ001>005-009-010-012>017-311200-
NORTHWEST AND NORTH CENTRAL SOUTH DAKOTA

CITY           SKY/WX    TMP DP  RH WIND       PRES   REMARKS
BUFFALO          N/A     65  46  50 N3        30.17S
FAITH            N/A     56  50  80 N3        30.20R
MOBRIDGE         N/A     57  53  86 CALM      30.15S
$$

SDZ012>016-024>037-041>051-057-063-072>074-311200-
SOUTHWEST AND SOUTH CENTRAL SOUTH DAKOTA

CITY           SKY/WX    TMP DP  RH WIND       PRES   REMARKS
RAPID CTY ARPT CLEAR     61  48  62 NW13      30.21F
PIERRE         CLEAR     58  52  80 NE3       30.14S
CUSTER         PTCLDY    51  41  68 N3        30.36F
ELLSWORTH AFB  CLEAR     62  48  60 W6        30.21S
PHILIP         CLEAR     54  52  93 W7        30.17S
PINE RIDGE     CLEAR     51  48  89 E3        30.23R
WINNER         FAIR      66  54  65 S6        30.16S
$$

SDZ004>011-016>023-039-040-311200-
NORTHEAST SOUTH DAKOTA

CITY           SKY/WX    TMP DP  RH WIND       PRES   REMARKS
ABERDEEN       CLEAR     55  51  86 CALM      30.15S
WATERTOWN      CLEAR     57  54  89 CALM      30.15S
BROOKINGS      MOCLDY    57  54  88 CALM      30.16S
SISSETON         N/A     57  51  80 NW6       30.11S
$$

SDZ017-020-022-023-036>040-048>070-311200-
SOUTHEAST SOUTH DAKOTA

CITY           SKY/WX    TMP DP  RH WIND       PRES   REMARKS
SIOUX FALLS    PTCLDY    60  58  92 CALM      30.13F
HURON          PTCLDY    60  58  92 NW3       30.14R
MITCHELL       CLEAR     58  56  93 NW3       30.14R
YANKTON          N/A    N/A N/A N/A MISG        N/A
$$

ABBREVIATIONS USED IN REMARKS
   TC - TEMPERATURE IN CELSIUS
  WCI - WIND CHILL INDEX
   HX - HEAT INDEX
  VSB - VISIBILITY




USA.gov is the U.S. government's official web portal to all federal, state and local government web resources and services.